www.pogodaiklimat.ru

Погода и климат >> Архив погоды >> Россия >> Калининградская область >> Балтийск


ПОГОДА в Балтийске

  • Прогноз погоды в Балтийске
  • Монитор погоды в Балтийске

АРХИВ ПОГОДЫ в Балтийске

Время (UTC), дата Ветер
(напр.,м/с)
 
Видим.   Явления Облачность Т
(С)
Тd
(С)
f
(%)
Тe
(С)
Тes
(С)
Комфортность P
(гПа)
Po
(гПа)
Тmin
(С)
Tmax
(С)
R
(мм)
R24
(мм)
S
(см)
12 13.01 ЮЗ 7-10
{10}
2000 м {ливн. осадки} 10/10 300 м
[Cb cap]
+3.4 +1.9 90 -3 -3 988.7 988.2
15 13.01 Ю 8-12
{12}
10 км слаб. ливневой дождь 10/10 300 м
[Cb cap]
+4.0 +2.5 90 -2 -2 984.5 984.0 1
18 13.01 Ю 7-12
{12}
20 км слаб. ливневой дождь 10/10 300 м
[Cb cap]
+3.5 +2.2 91 -3 -3 979.4 978.9 +4.1 2
21 13.01 ЮЗ 8-11
{13}
20 км слаб. ливневой дождь 10/10 300 м
[Cb cap]
+4.0 +3.0 93 -2 -2 976.9 976.4
00 14.01 З 6-9
{12}
20 км слаб. ливневой дождь 10/10 300 м
[Cb cap]
+4.3 +3.4 94 -1 -1 975.5 975.0
03 14.01 З 4-8
{9}
10 км слаб. ливневой дождь 10/10 300 м
[Cb cap]
+4.1 +2.8 91 -0 -0 976.4 975.9 +2.9 3
06 14.01 СЗ 8-13
{17}
20 км слаб. ливневой дождь 10/10 300 м
[Cb cap]
+1.7 0.0 88 -5 -5 980.2 979.7 +1.7 4
09 14.01 СЗ 8-14
{16}
20 км {ливн. осадки} 9/9 600 м
[Cu Sc]
+1.6 -5.0 61 -5 -5 983.8 983.3
12 14.01 СЗ 7-14
{15}
20 км {ливн. осадки} 9/9 600 м
[Cu Sc]
+1.3 -5.6 60 -5 -5 986.0 985.5
15 14.01 СЗ 7-13
{14}
20 км 8/8 300 м
[Cb cap]
+1.4 -6.0 58 -5 -5 989.6 989.1 0.0
18 14.01 СЗ 8-14
{16}
20 км 9/9 300 м
[Cb cap]
+2.1 -5.3 58 -4 -4 991.1 990.6 +2.2 0.0
21 14.01 С 7-15
{18}
4000 м слаб. ливневой снег 10/10 600 м
[Cb cap]
-0.9 -2.1 92 -8 -8 992.6 992.1
00 15.01 СЗ 7-15
{18}
20 км {ливн. осадки} 6/6 600 м
[Cu Sc]
+2.5 -4.8 59 -3 -3 993.7 993.2
03 15.01 СЗ 9-14
{17}
20 км 6/6 600 м
[Cu Sc]
+2.8 -4.8 57 -4 -4 994.1 993.6 -1.0 0.4
06 15.01 СЗ 9-14
{17}
20 км 6/6 600 м
[Cu Sc]
+2.9 -5.1 56 -3 -3 995.3 994.8 -1.0 0.4
09 15.01 СЗ 7-15
{18}
20 км 8/5 600 м
[Cu Sc Ci sp]
+2.8 -5.6 54 -3 -3 997.1 996.6
12 15.01 СЗ 6-12
{16}
20 км 9/8 600 м
[Cu med, cong Ci fib]
+2.3 -4.8 59 -3 -3 998.5 997.9
15 15.01 З 5-9
{12}
20 км 9/9 600 м
[St]
+2.5 -3.4 65 -3 -3 998.8 998.2
18 15.01 З 7-8
{13}
10 км слаб. ливневой снег 10/10 300 м
[Cb cap]
+0.2 -0.7 94 -7 -7 997.1 996.6 +2.9 0.3
21 15.01 В 2-3
{8}
4000 м слаб. ливневой снег 10/10 300 м
[Cb cap]
-0.4 -1.0 96 -4 -4 994.2 993.7
00 16.01 С 1-2
{5}
20 км {ливн. осадки} 8/8 600 м
[Cu Sc]
-0.9 -1.5 96 -3 -3 997.1 996.6
03 16.01 СЗ 2-5
{5}
20 км 9/9 600 м
[Cu Sc]
+0.6 0.0 96 -3 -3 999.7 999.2 -1.1 2
06 16.01 СЗ 2-5
{7}
20 км {ливн. осадки} 9/9 600 м
[Cu Sc]
+1.6 -0.6 85 -2 -2 1001.5 1001.0 -1.1 2 3
09 16.01 З 1-2
{5}
20 км 9/9 600 м
[Cu Sc]
+1.7 -0.2 87 -0 0 1003.1 1002.6
12 16.01 Ю 3-4
{5}
10 км 10/10 600 м
[St]
+1.4 +0.3 92 -3 -3 1002.2 1001.7
15 16.01 Ю 4-6
{8}
10 км в посл. час ливневой дождь 10/10 600 м
[St]
+2.7 +2.0 95 -2 -2 1000.9 1000.4 0.7
18 16.01 ЮЗ 7-10
{11}
10 км {ливн. осадки} 10/10 600 м
[St]
+4.3 +3.0 91 -2 -2 999.4 998.9 +4.4 0.3
21 16.01 ЮЗ 9-12
{12}
20 км 10/10 600 м
[St]
+4.9 +3.0 87 -1 -1 998.5 998.0
00 17.01 ЮЗ 8-11
{13}
20 км 10/10 600 м
[St]
+4.4 +2.7 89 -2 -2 996.8 996.3
03 17.01 Ю 8-12
{13}
20 км слаб. ливневой дождь 10/10 300 м
[Cb cap]
+4.5 +2.7 88 -2 -2 994.6 994.1 +2.8 1
06 17.01 Ю 9-13
{14}
20 км слаб. ливневой дождь 8/8 300 м
[Cb cap]
+3.9 +1.1 82 -3 -3 992.1 991.6 +3.8 1
09 17.01 ЮЗ 10-13
{14}
10 км в посл. час ливневой дождь 10/10 300 м
[Cb cap]
+3.2 +1.4 88 -4 -4 993.0 992.5
12 17.01 ЮЗ 10-12
{14}
20 км {ливн. осадки} 9/9 600 м
[Cu Sc]
+4.2 +1.6 83 -3 -3 994.2 993.7
15 17.01 ЮЗ 9-12
{13}
10 км слаб. ливневой дождь 10/10 300 м
[Cb cap]
+4.0 +2.0 87 -3 -3 995.1 994.6 1
18 17.01 ЮЗ 8-10
{15}
20 км слаб. ливневой дождь 10/10 300 м
[Cb cap]
+3.9 +0.9 81 -2 -2 995.8 995.3 +4.4 2
21 17.01 Ю 8-11
{11}
20 км {ливн. осадки} 8/8 600 м
[Cu Sc]
+4.3 -0.3 72 -2 -2 996.4 995.9
00 18.01 ЮЗ 8-10
{11}
20 км 8/8 600 м
[Cu Sc]
+4.0 +1.0 81 -2 -2 996.2 995.7
03 18.01 С 4-6
{11}
10 км слаб. ливневой дождь 9/9 300 м
[Cb cap]
+0.9 -0.3 92 -4 -4 997.4 996.8 +0.8 2
06 18.01 С 6-11
{11}
10 км слаб. ливневой снег 10/10 300 м
[]
+0.5 -1.4 87 -6 -6 1001.8 1001.3 +0.2 2
09 18.01 СЗ 5-11
{11}
20 км {ливн. осадки} 9/9 300 м
[Cb cap]
+0.7 -4.4 69 -5 -5 1006.4 1005.9
12 18.01 СЗ 6-10
{11}
20 км {ливн. осадки} 9/9 600 м
[Cu Sc]
+1.2 -3.7 70 -5 -5 1009.2 1008.7
15 18.01 СЗ 5-9
{11}
20 км 8/8 600 м
[Cu Sc]
+1.3 -4.4 66 -4 -4 1011.3 1010.8 0.3
18 18.01 З 6-10
{11}
20 км 6/6 600 м
[Cu Sc]
+1.8 -4.9 61 -4 -4 1013.0 1012.5 +2.0 0.0
21 18.01 З 10-12
{13}
20 км 3/3 600 м
[Cu Sc]
+2.2 -2.7 70 -5 -5 1014.2 1013.7
00 19.01 З 10-13
{14}
20 км 6/6 600 м
[Cu Sc]
+1.7 -1.0 82 -6 -6 1015.1 1014.6
03 19.01 ЮЗ 9-11
{13}
20 км 9/9 600 м
[Cu Sc]
+1.0 -0.8 88 -7 -7 1015.4 1014.9 +0.9
06 19.01 З 9-11
{13}
20 км в посл. час ливневой снег 10/10 300 м
[Cb cap]
+1.5 -0.3 88 -6 -6 1016.0 1015.5 +0.1 1 1
09 19.01 ЮЗ 7-10
{11}
20 км 9/9 300 м
[Cb cap]
+0.6 -0.9 90 -6 -6 1018.1 1017.6
12 19.01 ЮЗ 6-8
{11}
10 км 9/9 300 м
[Cb cap]
+1.2 -0.7 87 -5 -5 1018.6 1017.9
15 19.01 ЮЗ 7-9
{10}
20 км 8/8 600 м
[Cu Sc]
+1.9 -1.3 79 -5 -5 1018.4 1017.8 1
18 19.01 ЮЗ 8-10
{10}
10 км 10/10 600 м
[Cu Sc]
+1.2 -1.3 83 -6 -6 1017.9 1017.4 +2.1
21 19.01 ЮЗ 9-12
{12}
20 км 9/9 600 м
[Cu Sc]
+1.3 -1.0 85 -6 -6 1018.1 1017.6
00 20.01 ЮЗ 8-11
{12}
20 км 8/8 600 м
[Cu Sc]
+1.4 -1.0 84 -6 -6 1017.8 1017.3
03 20.01 ЮЗ 9-12
{12}
20 км 9/9 600 м
[Cu Sc]
+1.9 -1.5 78 -5 -5 1017.0 1016.5 +0.6
06 20.01 ЮЗ 10-12
{12}
20 км 10/10 600 м
[Cu Sc]
+1.3 -1.6 81 -6 -6 1016.4 1015.9 +0.9

 

Местоположение метеостанции Балтийск (Калининградская область, Россия): широта 54.65 долгота 19.88 высота над уровнем моря 4 м.

В архиве по умолчанию представлена погода в Балтийске за последнюю неделю. Архивные данные за месяц целиком и за предыдущие месяцы, начиная с января 2011 года, Вы можете получить, выбрав интересующий диапазон дат из раскрывающегося списка и нажав кнопку "Ввод!".


*Определитесь, кто Вы:
робот инопланетянин человек

Внимание! Время в таблицах - всемирное. Для получения местного времени необходимо прибавить поправку, которая равна 2 ч.

Смотрите также архив погоды в соседних городах и на ближайших метеорологических станциях:

Погода в Мамоново (Калининградская область, Россия) (20 км)
Погода в Рыбном Порту (Калининградская область, Россия) (37 км)
Погода в Пионерском (Калининградская область, Россия) (40 км)
Погода в Калининграде (Калининградская область, Россия) (48 км)
Погода в Эльблонге (Польша) (61 км)
Погода в Хеле (Польша) (68 км)
Погода в Рыбачем (Калининградская область, Россия) (84 км)
Погода на Авиабазе Гдыня-Оксывье (Польша) (88 км)
Погода в Железнодорожном (Калининградская область, Россия) (97 км)
Погода в Ольштыне (Польша) (104 км)

Пояснения к столбцам:

Ветер - указаны скорость ветра в м/с - средняя за 10 мин, порывы в срок и между сроками (в фигурных скобках) и направление, откуда дует ветер: С - северный, СВ - северо-восточный, В - восточный, ЮВ - юго-восточный, Ю - южный, ЮЗ - юго-западный, З - западный, СЗ - северо-западный.
Видимость - горизонтальная дальность видимости в метрах или километрах. При видимости от 1 до 10 км при отсутствии осадков обычно наблюдается дымка, при ухудшении видимости до 1 км и менее - туман. В сухую погоду видимость может ухудшаться дымом, пылью или мглою.
Явления - указаны атмосферные явления, наблюдавшиеся в срок или в последний час перед сроком; фигурными скобками обозначены явления, наблюдавшиеся между сроками (за 1-3 часа до срока); квадратными скобками обозначены град или гололедные отложения с указанием их диаметра в мм.
Облачность - указаны через наклонную черту общая и нижняя облачность в баллах и высота нижней границы облаков в метрах; квадратными скобками обозначены формы облаков: Ci - перистые, Cs - перисто-слоистые, Cc - перисто-кучевые, Ac - высококучевые, As - высокослоистые, Sc - слоисто-кучевые, Ns - слоисто-дождевые, Cu - кучевые, Cb - кучево-дождевые. Подробнее классификацию облаков см. в Атласе облаков (PDF).
T - Температура воздуха - температура, измеренная на высоте 2 м над землей.
Td - Температура точки росы - температура, при понижении до которой содержащийся в воздухе водяной пар достигнет насыщения.
f - Относительная влажность воздуха - влажноcть воздуха, измеренная на высоте 2 м над землей.
Te - Эффективная температура - температура, которую ощущает одетый по сезону человек в тени. Характеристика душности погоды. При расчете учитывается влияние влажности воздуха и скорости ветра на теплоощущения человека.
Tes - Эффективная температура на солнце - температура, которую ощущает человек, с поправкой на солнечный нагрев. Характеристика знойности погоды. Зависит от высоты солнца над горизонтом, облачности и скорости ветра. Ночью, в пасмурную погоду, а также при ветре 12 м/с и более поправка равна нулю.
P - Атмосферное давление - приведенное к уровню моря атмосферное давление.
Po - Атмосферное давление - измеренное на уровне метеостанции атмосферное давление.
Tmin - Минимальная температура - минимум температуры воздуха на высоте 2 м над землей.
Tmax - Максимальная температура - максимум температуры воздуха на высоте 2 м над землей.
R - Количество осадков - Количество выпавших осадков за период времени, мм. При наведении курсора мыши на число - период времени, за который выпало указанное количество осадков.
R24 - Количество осадков - Количество выпавших осадков за 24 часа, мм.
S - Снежный покров - Высота снежного покрова, см. При наведении курсора мыши на число - состояние снежного покрова и степень покрытия местности в баллах.